Tracking 19176 objects as of 25-May-2018
HD Live streaming from Space Station
objects crossing your sky now

AENEAS

Track AENEAS now!
10-day predictions
AENEAS is classified as:


NORAD ID: 38760
Int'l Code: 2012-048C
Perigee: 469.8 km
Apogee: 650.3 km
Inclination: 64.7 °
Period: 95.7 minutes
Semi major axis: 6931 km
RCS: Unknown
Launch date: September 13, 2012
Source: United States (US)
Launch site: AIR FORCE WESTERN TEST RANGE (AFWTR)
Uplink (MHz):
Downlink (MHz): 437.600
Beacon (MHz): 437.600
Mode: 1200bps AFSK
Call sign: KE6YFA-1
Status: Active

aabbcc
Your satellite tracking list
Your tracking list is empty




NASA's NSSDC Master Catalog

Two Line Element Set (TLE):
1 38760U 12048C   18145.18419834 +.00001099 +00000-0 +77306-4 0 03121
2 38760 064.6620 359.2117 0130224 349.9570 009.8932 15.04546115051208
Source of the keplerian elements: Caltech